Flag for Canada Weather past 2 weeks in Alert, Nunavut Territory, Canada

Now
-24 °F

Clear.


Feels Like: -35 °F
Forecast: -7 / 4 °F
Wind: 3 mph from Southeast

Location: Eureka

Current Time: Oct 20, 2014 at 1:22:54 AM

Latest Report: Oct 19, 2014 at 11:00 PM


Visibility: 15 mi

Pressure: 30.16 "Hg

Humidity: 68%

Dew point: -31 °F

Location of AlertLocation

Historic Weather in Alert — Graph

°F

Alert temperature yesterday

Maximum temperature yesterday: -2 °F (at 2:00 AM)
Minimum temperature yesterday: -29 °F (at 8:00 PM)
Average temperature yesterday: -19 °F

Past Weeks' High & Low Weather Summary

 TemperatureHumidityPressure
High21 °F (Oct 13, 11:00 AM)100% (Oct 9, 7:00 PM)30.78 "Hg (Oct 9, 7:00 PM)
Low-29 °F (Oct 19, 8:00 PM)49% (Oct 6, 2:00 PM)29.57 "Hg (Oct 14, 4:00 PM)
Average3 °F82%30.24 "Hg
* Reported Oct 5 3:00 AM — Oct 19 11:00 PM, Alert, Weather by CustomWeather, © 2014

Note: Actual official high and low records may vary slightly from our data, if they occured in-between our weather recording intervals... More about our weather records

Advertising

Alert weather history for previous 24 hours

 ConditionsComfort  
Time TempWeatherWind HumidityBarometerVisibility
11:00 PM
Oct 19
-24 °FClear.3 mph68%30.16 "Hg15 mi
10:00 PM-24 °FClear.2 mph75%30.15 "Hg15 mi
9:00 PM-27 °FClear.No wind74%30.16 "Hg15 mi
8:00 PM-29 °FClear.No wind74%30.16 "Hg15 mi
7:00 PM-27 °FClear.2 mph74%30.16 "Hg15 mi
6:00 PM-20 °FClear.2 mph75%30.16 "Hg15 mi
5:00 PM-20 °FClear.3 mph75%30.16 "Hg15 mi
4:00 PM-26 °FClear.3 mph67%30.15 "Hg15 mi
3:00 PM-20 °FClear.9 mph75%30.14 "Hg15 mi
2:00 PM-24 °FSunny.2 mph75%30.14 "Hg15 mi
1:00 PM-26 °FSunny.2 mph75%30.13 "Hg15 mi
12:00 PM-22 °FSunny.3 mph75%30.12 "Hg15 mi
11:00 AM-22 °FPassing clouds.2 mph75%30.12 "Hg15 mi
10:00 AM-24 °FPassing clouds.3 mph68%30.11 "Hg15 mi
9:00 AM-20 °FPassing clouds.5 mph62%30.10 "Hg15 mi
8:00 AM-17 °FPassing clouds.5 mph69%30.09 "Hg15 mi
7:00 AM-15 °FPassing clouds.2 mph76%30.08 "Hg15 mi
6:00 AM-17 °FClear.2 mph76%30.06 "Hg15 mi
5:00 AM-13 °FClear.6 mph69%30.06 "Hg15 mi
4:00 AM-18 °FClear.8 mph75%30.05 "Hg15 mi
3:00 AM-18 °FClear.6 mph69%30.03 "Hg15 mi
2:00 AM-2 °FClear.5 mph71%30.02 "Hg15 mi
1:00 AM-4 °FClear.5 mph77%30.02 "Hg15 mi
Weather by CustomWeather, © 2014

See weather overviewHow to use our weather pages